Pagina principale
METAR-TAF:

METAR-TAF

Aeroporti :

New Bedford, Massachusetts, Stati Uniti

latitudine: 41-40-31N, longitudine: 070-57-25W, altezza: 24 m

Osservazione

Il bollettino è stato emesso 45 minuti fa, alle 21:53 UTC
Vento 6 kt da nord
Temperature -1°C
Umidità 93%
Pressione 1012 hPa
Visibilità: 16.1 km
Cielo coperto ad un'altezza di 1000 ft

METAR: KEWB 182153Z 35006KT 10SM OVC010 M01/M02 A2987 RMK AO2 SNE19 CIG 007V013 SLP116 P0000 T10061017

Ora: 17:38 (22:38 UTC)


TAF: mancante

Osservazioni e previsioni meteorologiche di più di 4000 aeroporti (messaggi METAR e TAF).

Le stazioni disponibili sono rappresentate dai dischi gialli e rossi sulla carta.

Puntare il mouse per vedere il nome della stazione.

Clicca sopra per visualizzare le osservazioni e previsioni meteorologiche.

Per cambiare la mappa : fare clic sui pulsanti verdi con una croce nera per ingrandire, il pulsante verde con un trattino per diminuire, o sulla freccia verde per le mappe adiacenti.


METAR-TAF: